Location: Pittman
(37.9557°N, 80.9209°W)
Time: 15:23:04
(UTC+00:00)

Envisat - Pass Details

Date: 20 April 2026
Orbit: 761 x 762 km, 98.4° (Epoch: 15 May)

Event Time Altitude Azimuth Distance (km) Brightness Sun altitude
Rises 08:10:52 0° 10° (N) 3,230 7.0 -26.8°
Reaches altitude 10° 08:13:10 10° 8° (N) 2,300 6.1 -26.4°
Enters shadow 08:18:08 72° 293° (WNW) 801 2.9 -25.7°
